星链-31524 (STARLINK-31524 )

导读

STARLINK-31524是美国SpaceX星链星座的一员,于2024年4月13日发射升空。星链计划旨在搭建全球卫星互联网,为偏远地区、海上航空等场景提供网络接入服务。该卫星继承了星链卫星的设计特性,入轨后参与低轨星座组网,进一步扩充星链星座覆盖范围,为全球用户提供更稳定高速的卫星互联网服务。

基本信息
目录编号:
59506
目录名称:
STARLINK-31524
国际标识:
2024-071Y
轨道中心:
EARTH
卫星名称:
星链-31524
卫星全名:
星链-31524 (STARLINK-31524 )
卫星状态:
在轨 (已飞行874 天)
发射日期:
2024-04-13 UTC
国别 :
美国 (US)
星等 :
--
轨道信息
数据来源 国际轨道数据
星历时间: 2026-09-04T04:49:59+0800
18小时前
查看轨道信息
半长轴: 6861.233km
偏心率: 0.0001261
轨道倾角: 43.001°
近地点辐角 243.282°
升交点赤经 46.543°
平近点角 116.790°
近地点: 482.23km
远地点: 483.962km
周期: 94.268分钟
每日圈数: 15.275644
详细信息
固有亮度:
5
最大亮度:
1.5
卫星平台:
Starlink v2.0 mini
覆盖范围:
全球
运营商:
太空探索技术公司
运营商所在国:
美国
制造商(研发单位):
太空探索技术公司
制造商所在国:
美国
使用方式:
暂无
卫星简介
星链(Starlink)计划是由太空探索技术公司(SpaceX)提出的一个巨型低轨卫星互联网星座项目,计划在2019年至2024年间在太空搭建由约1.2万颗卫星组成的“星链”网络,其中1584颗将部署在地球上空550千米处的近地轨道,并从2020年开始工作。该卫星仍在工作。
2D轨道图
3D轨道图
轨道高度分析图
轨道倾角分析图
轨道综合分析图
查看轨道综合分析图
交会数据列表
事件ID 空间交会对象 最接近时刻(TCA) 交会距离 交会风险概率(CRP) 交会风险指数(CRI) 操作
CDM_260906-154505-950606-742021
2026-09-06T
15:45:06+0000
1.408 km
极远距离
5.271387E-6 低风险 0.49
CDM_260905-033305-306505-950621
2026-09-05T
03:33:22+0000
1.460 km
极远距离
4.585704E-6 低风险 0.48
CDM_260906-091605-950606-470821
2026-09-06T
09:16:33+0000
2.847 km
极远距离
1.310677E-6 低风险 0.37
CDM_260906-171905-950606-742021
2026-09-06T
17:19:15+0000
2.938 km
极远距离
9.458454E-7 极低风险 0.35